Location: Newark
(35.2672°N, 80.7344°W)
Time: 00:58:29
(UTC+00:00)

A-11 Canister half - Pass Details

Date: 28 January 2020
Orbit: 1524 x 1684 km, 47.3° (Epoch: 20 February)

Event Time Altitude Azimuth Distance (km) Brightness Sun altitude
Rises 03:40:34 0° 303° (WNW) 4,741 12.0 -59.4°
Reaches altitude 10° 03:43:38 10° 306° (NW) 3,775 11.4 -60.0°
Enters shadow 03:45:03 16° 308° (NW) 3,345 11.0 -60.2°
